Weather History for KMYL - September, 2013

Change the Weather History Date:

Tuesday, September 3, 2013

  Actual Average Record
Temperature  
Mean Temperature 65 °F 55 °F  
Max Temperature 75 °F 72 °F 93 °F (1950)
Min Temperature 54 °F 38 °F 25 °F (1975)
Degree Days  
Heating Degree Days 0 10  
Month to date heating degree days 2 29  
Since 1 July heating degree days 49 357  
Cooling Degree Days 0 0  
Month to date cooling degree days 0 0  
Year to date cooling degree days 180 25  
Growing Degree Days 16 (Base 50)    
Moisture  
Dew Point 54 °F    
Average Humidity 67    
Maximum Humidity 90    
Minimum Humidity 43    
Precipitation  
Precipitation 0.06 in 0.03 in 0.47 in (2000)
Month to date precipitation 0.07 0.08  
Year to date precipitation 11.64 13.12  
Sea Level Pressure  
Sea Level Pressure 30.03 in    
Wind  
Wind Speed 3 mph (SSE)    
Max Wind Speed 13 mph    
Max Gust Speed 21 mph    
Visibility 10 miles    
Events Rain    
T = Trace of Precipitation, MM = Missing Value Source: NWS Daily Summary

Daily Weather History Graph

Daily Weather History Graph

Search for Another Location

Airport or City:

Trip Planner

Search our weather history database for the weather conditions in past years. The results will help you decide how hot, cold, wet, or windy it might be!

Date:

Astronomy

Sep. 03, 2013 Rise Set
Actual Time 7:09 AM MDT 8:17 PM MDT
Civil Twilight 6:39 AM MDT 8:47 PM MDT
Nautical Twilight 6:03 AM MDT 9:23 PM MDT
Astronomical Twilight 5:24 AM MDT 10:00 PM MDT
Moon 5:25 AM MDT (9/3) 7:07 PM MDT (9/3)
Length of Visible Light 14h 07m
Length of Day
13h 07m
Waning Crescent, 3% of the Moon is Illuminated
Sep 3
Waning Crescent
Sep 5
New
Sep 12
First Quarter
Sep 19
Full
Sep 26
Last Quarter

Hourly Weather History & Observations

Time (MDT) Temp. Dew Point Humidity Pressure Visibility Wind Dir Wind Speed Gust Speed Precip Events Conditions
12:51 AM 61.0 °F 55.9 °F 83% 29.99 in 10.0 mi Calm Calm - N/A   Overcast
1:51 AM 61.0 °F 54.0 °F 78% 30.00 in 10.0 mi Calm Calm - N/A   Overcast
2:51 AM 59.0 °F 53.1 °F 81% 29.99 in 10.0 mi Calm Calm - N/A   Clear
3:51 AM 57.9 °F 53.1 °F 84% 30.00 in 10.0 mi Calm Calm - N/A   Mostly Cloudy
4:51 AM 57.9 °F 53.1 °F 84% 30.00 in 10.0 mi Calm Calm - N/A   Mostly Cloudy
5:51 AM 57.0 °F 54.0 °F 89% 30.01 in 10.0 mi WSW 3.5 mph - 0.00 in   Overcast
6:51 AM 57.9 °F 54.0 °F 87% 30.03 in 10.0 mi Calm Calm - N/A   Overcast
7:51 AM 57.9 °F 54.0 °F 87% 30.05 in 8.0 mi East 5.8 mph - 0.05 in Rain Light Rain
8:51 AM 57.0 °F 55.0 °F 93% 30.05 in 10.0 mi SSW 5.8 mph - 0.01 in   Clear
9:51 AM 60.1 °F 55.0 °F 83% 30.05 in 10.0 mi Calm Calm - N/A   Mostly Cloudy
10:51 AM 61.0 °F 57.0 °F 87% 30.07 in 10.0 mi Calm Calm - N/A   Clear
11:51 AM 66.0 °F 57.0 °F 73% 30.06 in 10.0 mi Calm Calm - N/A   Clear
12:51 PM 66.9 °F 55.0 °F 66% 30.07 in 10.0 mi SSE 10.4 mph - N/A   Scattered Clouds
1:51 PM 66.0 °F 55.9 °F 70% 30.06 in 10.0 mi South 9.2 mph - 0.00 in Rain Light Rain
2:51 PM 69.1 °F 55.9 °F 63% 30.04 in 10.0 mi Calm Calm - 0.00 in   Mostly Cloudy
3:51 PM 70.0 °F 53.1 °F 55% 30.04 in 10.0 mi SSE 8.1 mph - N/A   Clear
4:51 PM 73.0 °F 52.0 °F 48% 30.00 in 10.0 mi SSE 5.8 mph - N/A   Scattered Clouds
5:51 PM 75.0 °F 52.0 °F 44% 30.00 in 10.0 mi South 8.1 mph - N/A   Clear
6:51 PM 73.0 °F 51.1 °F 46% 29.98 in 10.0 mi South 8.1 mph - N/A   Clear
7:51 PM 68.0 °F 52.0 °F 56% 30.01 in 10.0 mi Calm Calm - N/A   Clear
8:51 PM 63.0 °F 52.0 °F 67% 30.03 in 10.0 mi ENE 3.5 mph - N/A   Clear
9:51 PM 63.0 °F 52.0 °F 67% 30.03 in 10.0 mi Calm Calm - N/A   Clear
10:51 PM 60.1 °F 51.1 °F 72% 30.05 in 10.0 mi Calm Calm - N/A   Clear
11:51 PM 59.0 °F 52.0 °F 78% 30.05 in 10.0 mi NNW 4.6 mph - N/A   Clear